Wind_Speed
44 46 47 48 48 48 48 49 49 49 50 50 51 52 52 54 56 57 57 59 60 62 65 67 68 70 72 74 75 77 79 81 83 86 89 93 97 102 105 108 111 114 117 120 124 126 128 130 131 131 131 131 131 131 131 131 131 131 130 130 130 130 132 134 134 133 132 132 133 135 137 138 138 135 130 126 125 126 127 128 129 130 130 131 131
42 42 43 45 46 47 47 47 48 48 48 49 50 51 51 52 54 55 55 56 57 59 61 62 64 66 68 70 71 73 75 77 79 81 85 88 92 97 101 104 106 109 113 116 120 123 126 127 129 129 130 130 130 130 130 130 130 130 129 129 129 128 129 130 130 129 128 128 130 133 135 136 136 134 130 126 125 125 126 128 128 129 129 129 129
40 40 40 41 42 43 44 45 47 47 48 48 49 50 50 51 52 54 54 54 55 56 58 59 61 62 64 66 67 68 70 73 75 77 80 84 88 92 96 99 101 104 108 112 116 119 122 124 126 127 128 128 128 128 128 128 128 128 128 129 128 128 128 128 127 126 125 125 126 129 131 132 131 130 128 126 125 125 126 127 128 128 128 128 128
36 37 38 38 39 40 42 43 44 46 47 47 48 48 49 50 51 51 52 53 53 55 56 57 59 60 61 63 64 65 66 69 71 74 76 80 83 86 90 93 96 99 104 108 112 116 119 121 123 124 125 125 125 126 126 127 127 127 127 127 127 127 127 127 126 123 122 123 123 124 126 126 125 125 124 125 125 125 125 126 126 127 127 127 128
32 33 34 35 36 37 39 41 42 44 46 47 47 47 48 49 49 50 50 51 53 54 55 55 56 58 59 60 61 63 64 65 67 70 72 75 78 82 85 89 92 95 100 105 109 113 116 118 120 121 122 122 121 122 123 124 125 125 125 125 125 126 126 126 124 122 120 120 121 121 121 120 119 120 121 122 123 123 123 124 124 125 125 126 127
30 30 32 33 33 34 35 38 39 40 43 44 45 45 46 47 47 48 49 50 51 52 53 54 55 56 57 58 59 61 61 62 64 66 69 71 74 77 81 84 88 92 96 101 105 109 111 114 116 117 118 118 118 119 120 121 122 122 122 122 123 124 125 125 123 120 117 117 117 117 117 117 116 117 119 120 121 121 121 121 121 122 122 123 125
31 31 31 32 33 32 32 34 36 38 39 41 42 42 42 43 44 45 46 47 48 49 51 52 52 54 55 56 58 59 60 61 62 64 66 68 71 73 77 80 84 87 91 95 99 102 105 108 110 112 113 114 114 115 116 117 118 118 119 120 120 122 123 123 123 120 117 115 114 114 114 114 114 115 117 118 118 119 119 119 119 120 120 122 123
35 32 32 32 33 34 33 32 34 36 37 38 39 39 39 40 41 42 44 44 45 45 47 48 49 51 53 55 56 58 59 60 61 63 64 66 68 70 73 75 79 82 86 89 92 94 97 101 103 106 107 109 111 112 112 113 114 115 115 117 118 119 120 121 121 120 117 115 113 112 112 112 112 113 114 115 115 116 117 118 119 120 121 121 122
38 35 33 32 33 34 34 33 33 34 36 36 37 38 37 37 38 40 41 43 43 43 43 44 46 48 50 51 53 55 57 59 60 61 62 64 66 68 70 72 74 77 80 83 85 87 90 94 97 100 103 105 108 109 109 110 111 111 112 114 115 116 117 118 119 118 116 114 112 111 110 109 109 110 110 111 112 114 116 119 120 121 121 120 120
36 36 34 32 32 33 34 33 32 33 34 35 36 36 36 35 36 37 39 41 42 42 42 43 45 46 47 47 48 50 53 56 58 60 61 62 64 66 68 69 71 74 76 78 80 82 85 87 90 94 97 101 104 106 107 107 108 109 110 111 112 113 114 115 115 115 114 112 110 109 108 107 107 107 108 109 111 113 115 117 119 120 120 119 118
31 33 33 32 31 32 33 33 32 32 33 34 35 35 35 35 34 35 37 39 40 42 43 44 44 44 45 45 45 46 48 51 55 58 59 60 62 64 66 68 69 71 73 74 76 78 80 83 85 88 91 95 98 101 103 104 105 106 107 108 109 110 110 110 111 111 111 109 107 105 104 103 104 105 105 106 108 110 113 116 118 119 119 118 117
29 29 29 29 30 30 31 31 31 31 31 33 33 34 34 34 34 34 35 36 38 40 42 43 43 43 43 43 44 44 45 47 50 54 57 59 60 62 64 66 67 69 70 72 73 75 77 79 81 84 86 89 92 95 97 99 100 101 102 104 105 105 105 106 106 107 106 105 103 101 99 99 101 102 103 104 106 108 111 114 116 118 118 118 117
27 28 27 26 28 29 29 30 30 30 30 31 32 32 33 34 34 34 34 34 36 37 39 40 41 41 42 43 44 44 44 45 46 49 52 55 57 59 61 63 65 67 69 71 72 73 75 76 78 79 82 84 86 89 91 93 94 95 96 97 98 99 100 100 101 102 101 100 99 96 95 95 97 98 99 101 103 105 108 110 113 115 117 117 117
26 26 25 25 27 28 28 28 28 28 27 28 29 31 32 33 34 33 33 33 34 34 35 37 38 40 41 42 43 44 44 44 45 46 48 51 53 56 59 61 63 65 67 69 71 72 73 74 76 77 78 79 81 83 85 88 90 90 91 91 91 92 94 95 96 96 96 96 94 93 92 94 94 95 96 98 99 101 104 106 109 112 114 114 114
27 25 25 25 27 27 26 26 26 26 25 25 26 28 29 31 32 32 31 32 32 33 33 34 36 38 39 41 42 43 43 43 45 46 47 49 51 53 56 59 60 63 65 67 68 70 71 73 74 75 76 77 78 79 81 83 85 85 86 86 87 87 88 89 90 91 91 90 90 90 91 92 92 93 94 95 97 99 101 103 106 108 109 109 109
27 25 24 25 26 25 24 24 24 25 24 24 24 25 26 28 29 29 30 30 30 31 32 33 34 36 37 39 40 41 42 43 45 46 47 48 49 51 54 56 58 61 63 65 66 68 69 71 72 74 75 76 77 78 79 79 79 79 80 82 83 84 85 85 86 88 87 86 86 87 89 90 91 91 93 94 95 97 99 101 103 103 104 104 104
27 25 24 24 24 23 22 22 23 23 23 23 23 23 24 26 27 28 28 28 29 30 31 32 33 34 36 37 38 39 40 41 43 44 45 46 48 50 52 54 57 59 62 63 65 66 68 69 71 72 73 75 76 76 75 74 74 75 77 79 80 81 82 83 85 86 86 85 85 86 87 88 88 88 89 90 91 92 95 97 98 98 99 100 101
27 25 24 23 22 22 22 22 22 22 22 22 22 23 24 24 25 26 27 28 28 29 29 31 32 33 34 35 36 36 37 39 40 41 42 43 44 47 49 51 54 58 60 61 62 63 65 66 67 68 70 71 71 70 69 70 71 73 75 77 78 79 80 82 83 84 84 84 84 84 85 85 84 84 85 85 86 88 91 92 93 94 95 96 98
26 26 25 23 23 22 22 22 22 21 21 21 21 21 22 22 23 24 25 26 27 28 28 29 30 31 32 33 34 35 36 37 38 39 39 40 41 44 46 48 51 54 57 58 58 59 60 62 63 64 65 65 65 64 65 67 68 71 74 75 76 77 79 80 80 80 81 81 81 81 82 81 81 82 83 84 85 87 89 90 91 92 93 93 94
26 26 25 24 24 23 22 22 21 20 20 20 19 19 19 20 20 21 23 24 25 26 27 28 30 31 32 32 33 34 35 36 37 38 38 39 39 41 43 46 48 50 52 52 53 54 56 57 59 60 61 61 62 63 65 66 68 71 73 73 74 76 76 76 76 76 77 77 76 77 77 77 79 80 82 83 84 85 86 86 87 88 89 89 90
26 25 24 24 23 22 21 20 19 19 18 18 18 18 18 18 19 20 21 22 23 24 26 27 29 30 31 32 32 33 34 34 35 36 37 37 38 39 41 43 44 46 47 48 49 51 53 54 55 56 57 59 61 63 64 66 67 69 70 70 71 72 72 70 70 71 71 71 71 72 73 74 76 78 79 80 80 79 80 81 82 83 84 85 85
24 23 22 22 22 21 20 19 18 17 17 17 17 17 17 18 18 19 20 21 22 23 24 25 26 27 28 29 30 31 31 32 32 33 34 35 36 37 39 41 42 43 44 45 47 48 49 51 52 53 55 57 58 60 61 62 63 65 66 66 66 67 66 65 65 65 65 67 69 69 70 72 73 74 74 74 73 73 74 76 77 78 79 79 80
23 22 21 20 20 20 20 19 18 17 16 16 16 16 16 17 18 19 20 20 20 21 22 23 24 24 25 26 26 27 28 29 29 30 31 32 33 35 37 38 40 41 42 43 44 45 46 47 48 50 52 54 55 55 56 57 58 60 60 60 60 61 61 60 59 60 63 66 67 66 67 69 70 70 70 69 68 69 71 71 72 73 74 75 76
22 21 20 20 19 19 19 18 17 16 16 15 15 15 15 16 17 17 18 18 18 19 20 21 22 23 23 24 24 25 26 27 27 28 29 30 31 32 34 35 37 38 38 39 41 42 43 43 44 46 48 50 51 51 52 53 54 54 54 54 55 55 55 55 56 58 62 64 63 63 65 66 66 66 66 65 66 67 67 68 69 70 71 72 72
21 20 20 19 19 18 18 17 16 15 15 14 14 14 14 14 14 15 15 15 16 16 17 17 18 19 20 21 22 23 23 24 24 25 26 27 28 30 31 33 34 35 36 37 38 39 40 41 42 43 44 44 45 46 47 48 49 50 51 51 52 52 52 54 56 58 61 61 61 61 62 62 62 62 62 62 62 63 64 65 66 67 68 68 69
20 19 19 19 18 18 17 16 15 14 14 13 13 13 12 12 12 12 13 13 13 13 14 15 15 15 16 17 18 19 20 20 21 22 22 23 24 26 27 29 30 32 33 34 36 37 38 39 39 40 40 40 41 41 42 43 44 45 46 48 49 50 51 53 55 57 58 58 57 57 58 58 58 58 58 58 59 60 61 62 63 64 65 65 66
19 19 18 18 17 17 16 15 14 13 13 12 11 11 11 10 10 11 11 11 11 12 12 13 13 13 14 15 16 16 17 18 19 19 19 19 20 21 23 25 26 28 29 31 32 33 34 35 36 37 37 37 37 38 38 38 39 40 42 44 46 47 48 49 50 52 52 52 52 52 53 53 53 54 55 56 57 58 58 59 59 60 61 61 62
19 18 17 17 16 15 14 14 13 12 12 11 11 10 10 9 9 9 9 10 10 11 11 11 12 12 13 14 14 15 15 16 17 17 17 17 18 18 20 21 23 24 26 27 28 29 31 32 32 33 33 33 34 34 34 35 36 37 39 41 42 43 43 44 45 45 45 45 46 46 47 49 50 51 53 54 54 55 55 56 56 57 57 58 59
19 17 16 15 14 14 14 13 12 12 11 11 10 9 9 8 8 8 9 9 9 9 9 10 10 11 12 13 13 14 14 15 16 16 16 16 16 17 18 19 20 22 23 25 26 27 28 29 30 30 31 31 31 31 32 33 34 35 36 37 38 38 39 39 39 39 39 40 42 43 44 46 47 49 50 50 52 52 53 54 54 55 56 57 58
19 17 15 14 14 14 13 13 13 12 12 11 10 9 9 8 8 8 7 7 7 7 8 8 9 10 11 12 12 13 14 14 15 15 15 16 16 16 17 17 18 19 21 23 24 25 26 27 27 28 28 29 29 30 31 32 32 33 34 34 35 35 36 36 36 37 37 39 40 41 42 43 45 46 47 48 50 51 51 53 54 54 56 57 58
19 17 16 16 15 14 14 14 13 12 11 11 10 9 9 8 7 7 7 7 7 6 6 6 7 8 9 10 11 12 12 13 14 14 14 15 15 15 16 16 17 17 18 20 21 22 23 24 24 25 25 26 27 28 29 30 31 31 32 33 33 34 35 35 35 36 37 38 39 40 42 43 45 46 46 48 49 50 51 52 53 54 55 56 57
20 18 17 16 16 15 15 14 13 12 12 11 10 9 9 8 7 7 6 6 6 5 5 5 5 6 7 8 9 9 10 11 12 12 13 13 14 14 15 15 15 16 16 17 18 19 20 21 22 22 22 23 24 26 27 28 29 29 30 31 32 33 34 34 35 36 38 39 40 41 43 44 44 45 46 48 48 49 50 51 52 53 53 54 54
21 19 18 16 16 17 16 15 14 14 13 12 10 9 9 8 6 5 5 5 5 4 4 4 4 4 5 6 7 8 8 9 10 10 11 12 12 13 14 14 14 15 15 16 17 18 19 20 22 22 23 24 25 26 27 28 28 29 30 31 32 33 34 35 36 37 38 39 40 41 41 42 43 44 45 45 46 47 47 48 48 49 49 50 50
21 19 17 16 17 18 17 15 15 14 14 12 11 10 8 7 6 5 4 4 4 4 4 3 3 3 4 5 6 7 8 9 9 10 10 11 12 12 12 13 13 13 14 15 16 17 18 19 21 22 23 24 25 26 26 27 27 28 28 29 30 31 32 33 34 35 35 36 36 37 38 39 40 40 41 42 42 43 43 43 43 44 44 45 45
21 20 18 17 18 18 17 15 15 15 14 13 11 10 9 8 6 6 6 6 5 5 4 2 2 2 2 3 4 6 7 8 9 10 11 11 12 12 12 13 13 13 13 14 14 15 15 16 17 18 19 20 21 22 23 23 24 25 25 26 27 28 29 29 30 31 32 32 33 34 35 35 36 37 38 38 38 39 39 39 39 40 40 41 42
22 21 19 18 18 18 16 15 14 15 14 13 12 11 10 9 8 8 7 7 6 5 4 3 2 1 0 1 2 4 5 6 8 9 10 11 12 13 13 13 14 14 14 14 14 14 15 15 16 16 17 18 19 19 20 21 22 22 23 23 24 25 26 26 27 28 29 30 30 31 32 32 33 33 34 34 34 34 35 35 36 37 37 38 39
22 21 20 18 18 17 16 14 14 14 14 13 13 12 11 10 9 9 8 7 6 6 5 5 4 3 2 2 3 3 4 5 6 7 8 9 11 12 13 13 13 13 14 14 14 14 14 15 15 15 16 16 17 18 19 19 20 20 21 21 22 23 23 24 25 25 26 26 27 27 28 28 28 29 30 30 31 31 32 33 34 34 35 36 37
23 22 20 18 17 17 16 15 14 14 14 13 12 12 11 10 9 9 8 7 6 6 6 6 6 5 5 5 6 6 6 6 6 6 7 7 8 9 10 11 11 11 11 12 12 13 13 14 14 14 15 15 16 16 17 17 18 18 19 19 20 20 21 21 22 23 23 24 24 24 25 25 26 27 28 28 29 30 30 31 32 33 33 34 35
23 22 20 18 17 17 17 16 15 14 14 13 12 12 11 11 10 9 8 7 6 6 6 6 6 6 6 7 8 8 8 9 9 10 10 10 10 10 10 10 11 11 11 11 11 11 12 12 12 13 13 13 13 14 14 15 15 16 16 17 17 18 18 19 19 20 20 21 22 22 23 24 24 25 26 27 27 28 29 30 31 32 33 34 36
24 22 20 18 18 17 17 16 15 14 13 13 13 12 12 11 11 10 9 8 7 6 6 6 5 5 6 6 7 7 8 8 9 10 10 10 11 11 11 11 11 11 12 12 12 12 12 12 12 12 12 12 12 12 12 13 13 13 13 14 14 15 15 16 16 17 18 19 19 20 21 22 23 24 25 26 27 28 29 31 32 33 35 36 38
24 22 20 18 17 17 17 16 15 13 13 13 13 12 12 12 11 11 10 10 9 8 7 7 6 6 6 6 6 6 6 6 7 7 7 8 8 8 9 9 9 9 9 9 9 9 10 10 10 9 9 9 9 9 9 9 9 10 10 10 11 12 13 14 15 16 17 18 19 20 21 22 23 24 26 27 28 30 31 32 34 35 36 37 38
24 22 20 18 17 16 16 16 15 14 13 13 12 12 11 11 12 12 11 11 11 10 9 8 7 7 7 7 7 7 6 6 6 6 6 6 6 6 6 6 5 5 5 5 5 6 6 6 6 6 6 6 6 6 7 8 8 9 9 10 11 12 13 14 16 17 18 19 20 21 22 23 24 26 27 28 29 30 31 32 34 35 35 37 38
24 22 20 18 17 16 16 16 15 14 13 13 12 11 11 11 11 11 11 11 11 11 10 9 9 8 8 8 8 8 7 6 6 6 6 6 5 5 5 5 4 4 3 3 3 3 4 4 4 4 5 5 6 6 7 8 8 9 10 11 12 13 14 15 17 18 18 19 20 21 23 24 25 26 27 28 30 31 32 33 35 36 37 39 41
23 22 20 19 17 17 16 15 14 13 13 13 12 11 11 11 11 10 10 11 11 11 11 10 9 9 9 9 9 8 8 7 7 6 6 5 5 5 4 4 3 3 2 2 2 2 2 3 3 4 4 5 6 7 7 8 9 10 11 12 13 14 15 16 17 18 19 20 21 22 24 25 26 28 29 30 31 33 34 36 37 39 40 41 43
24 22 20 19 18 17 16 15 14 13 13 13 12 11 11 10 10 10 10 10 10 10 10 10 9 9 9 9 9 8 8 8 7 7 6 6 5 5 4 3 3 2 1 1 1 1 2 2 3 4 4 5 6 7 8 8 9 10 12 13 14 15 16 18 19 20 21 22 24 25 26 28 29 30 31 32 34 35 36 37 39 39 40 41 42
24 22 21 19 18 16 15 15 13 13 12 12 11 11 10 10 10 9 9 10 10 10 10 10 9 9 9 9 9 9 8 8 8 8 7 7 7 6 6 6 5 5 5 5 5 5 5 6 6 7 7 8 9 9 10 11 12 13 15 16 17 18 19 20 22 23 24 25 26 27 28 29 30 31 33 33 34 35 36 36 37 38 38 39 40
23 22 20 19 17 16 15 14 13 12 12 11 11 10 10 10 10 10 10 10 10 10 11 11 10 10 10 10 10 10 9 9 9 9 9 8 8 8 8 8 8 8 8 8 8 9 9 9 9 10 10 11 11 12 13 14 14 16 17 18 19 20 21 22 23 24 25 26 27 28 28 29 30 31 32 32 33 33 34 34 35 36 37 38 39
23 22 20 19 17 16 14 13 12 12 11 10 10 9 9 10 10 10 10 10 10 11 11 11 11 11 11 11 11 11 11 11 10 10 10 10 10 10 9 9 9 9 9 9 9 9 9 10 10 10 11 11 12 12 13 14 15 16 17 18 19 20 21 22 22 23 24 25 26 27 27 28 29 29 30 30 31 32 33 34 35 36 37 38 39
23 22 20 18 17 15 14 13 12 11 11 10 10 10 9 10 10 10 10 10 11 11 11 11 11 11 11 11 11 11 11 11 11 11 11 10 10 10 10 10 9 9 9 9 9 9 9 10 10 10 11 11 12 13 13 14 15 16 16 17 18 18 19 20 21 22 22 23 24 25 26 27 27 28 29 30 31 32 33 35 36 37 38 39 40
23 21 20 18 16 15 14 13 12 11 10 10 10 10 10 10 10 10 10 10 11 11 12 12 12 12 13 13 13 13 13 13 12 12 12 12 12 11 11 10 10 9 9 9 9 9 9 9 9 10 10 11 11 12 12 13 14 14 15 16 16 17 18 19 20 21 22 23 24 25 26 27 28 29 30 31 32 33 34 35 37 37 38 39 40
23 21 20 18 16 15 14 13 12 11 10 10 10 10 10 10 10 11 11 11 11 12 12 12 13 13 13 14 14 14 14 14 14 13 13 12 12 11 10 10 9 8 8 7 7 7 7 7 7 8 9 9 10 11 12 12 13 14 15 16 17 18 19 20 21 22 23 24 25 26 27 28 29 30 30 31 32 33 34 35 36 37 38 39 39
Wind_Direction
279 277 276 275 274 272 269 266 264 262 259 258 256 254 252 251 250 249 249 249 249 249 248 248 248 247 247 246 245 245 243 242 240 238 237 235 235 234 233 233 233 234 234 235 237 238 239 240 241 241 242 243 243 244 244 245 246 246 246 246 246 246 246 246 246 246 246 247 247 249 250 251 252 252 252 251 251 251 252 252 252 252 253 253 254
279 276 274 273 272 272 270 268 266 264 261 258 256 254 252 250 249 249 248 247 247 248 248 248 247 247 247 246 246 245 244 243 241 240 238 237 236 235 234 233 233 233 233 234 235 237 238 239 240 241 241 242 242 243 244 244 245 246 246 247 247 247 247 247 247 247 246 246 247 247 249 250 251 252 252 252 252 252 252 252 253 253 253 253 254
282 279 276 273 271 270 269 268 266 265 263 260 257 255 253 251 249 249 248 247 247 247 248 247 247 246 246 246 245 245 244 243 242 241 239 238 237 236 235 234 233 233 233 233 234 235 237 238 240 240 241 241 242 243 243 244 244 245 246 246 247 247 248 248 248 248 247 247 247 247 248 249 250 252 252 253 252 252 252 252 253 253 254 254 254
282 280 278 275 272 270 268 266 265 265 263 261 259 257 255 253 250 249 249 248 247 247 247 246 246 246 245 245 244 244 243 243 242 241 240 239 238 237 236 235 234 233 233 233 233 234 235 237 238 240 241 241 241 242 243 243 244 245 245 246 246 247 248 249 249 249 248 248 248 248 249 249 250 251 252 252 252 252 252 252 253 253 254 254 254
285 282 279 276 274 271 269 267 265 264 263 262 261 259 258 255 252 250 249 248 248 247 247 246 246 245 245 245 244 243 243 242 241 241 240 239 238 237 236 236 235 234 233 233 234 234 235 236 237 239 240 241 241 242 242 243 243 244 245 245 246 246 248 249 249 249 249 249 249 249 249 250 250 251 252 252 252 252 252 252 252 253 253 254 254
292 289 286 283 279 275 272 270 268 266 265 264 263 261 260 258 255 252 249 248 248 249 248 247 246 245 245 245 244 244 243 242 241 240 240 239 238 237 237 236 235 235 235 234 235 235 236 236 237 239 240 241 241 241 242 242 243 244 244 245 245 246 247 248 249 249 249 249 249 249 250 250 251 251 251 252 252 252 252 252 253 253 253 254 254
300 297 294 291 287 283 279 276 274 272 270 268 266 264 262 260 258 255 251 249 248 248 249 248 247 245 244 244 244 243 243 242 241 240 239 239 238 237 237 237 236 236 236 236 236 237 237 238 238 239 240 241 241 241 242 242 243 243 244 245 245 245 246 247 248 249 249 249 249 249 249 250 250 250 251 251 252 253 253 253 253 253 253 253 253
304 302 299 296 292 289 286 282 278 275 273 271 270 268 264 261 259 257 254 250 247 246 247 248 247 245 243 242 242 242 241 241 241 240 239 238 238 237 237 237 237 237 237 238 238 238 238 238 239 239 240 240 241 241 241 242 243 243 244 244 245 245 246 247 248 249 250 250 250 250 249 249 249 249 249 250 251 252 253 253 253 252 252 252 252
305 304 301 298 294 291 289 285 281 278 276 274 272 270 267 264 261 258 255 252 248 246 246 246 246 246 244 242 241 241 241 240 240 240 239 238 238 237 237 237 237 237 238 238 238 238 238 239 239 239 239 240 241 241 241 242 242 243 243 243 244 245 246 246 248 249 249 250 250 250 249 249 249 249 249 249 250 250 251 252 252 252 252 251 251
302 302 301 298 294 291 288 286 282 279 277 276 273 271 269 265 261 258 255 252 249 246 245 244 245 245 245 243 242 241 241 240 240 240 239 239 238 237 237 237 237 237 238 238 238 238 238 238 239 239 239 240 241 241 242 242 242 242 243 243 244 244 245 246 247 248 249 249 249 249 249 249 249 249 248 248 248 249 250 251 251 252 252 252 251
300 299 299 298 295 290 287 285 282 279 276 275 273 271 269 266 262 258 256 253 250 247 245 244 244 245 245 245 243 241 240 240 239 239 239 238 238 237 237 236 236 237 237 237 238 238 238 238 238 239 239 239 240 241 242 243 243 243 243 244 244 245 245 246 247 248 249 249 249 249 249 249 249 249 248 248 248 248 248 249 251 251 252 252 252
302 299 297 296 293 288 285 283 281 277 274 272 272 271 269 267 263 260 257 254 252 250 248 246 245 245 245 245 245 243 241 240 239 239 238 238 238 238 237 237 236 237 237 237 237 238 238 238 238 238 238 239 240 241 242 243 244 244 245 245 246 246 247 247 248 249 250 250 251 251 250 250 249 249 249 248 248 248 247 248 249 251 251 252 252
306 302 298 293 288 285 283 282 280 278 275 273 272 271 270 268 266 263 260 257 255 253 251 248 246 245 245 245 245 244 243 242 241 240 239 238 238 238 238 238 237 237 236 236 236 237 237 237 238 238 238 238 239 240 241 243 244 245 246 246 247 247 248 248 249 250 251 251 252 252 252 251 250 250 249 249 248 248 248 248 249 250 251 251 251
311 304 299 292 287 285 283 282 281 280 278 275 273 272 271 270 270 268 265 262 260 257 255 252 248 246 245 245 245 244 244 243 243 242 241 240 239 238 238 238 238 237 237 237 236 236 236 237 237 237 238 238 238 239 240 241 243 244 245 246 247 248 248 249 249 250 251 251 252 252 251 251 250 249 249 248 248 248 248 248 248 249 250 251 251
313 306 299 292 288 287 286 285 285 283 280 276 273 272 271 271 272 271 269 266 263 261 258 255 251 248 245 244 244 244 243 242 242 242 240 239 239 238 238 238 238 238 238 238 237 237 237 237 237 237 238 238 238 238 238 239 241 242 244 245 246 247 248 248 249 250 250 249 249 249 249 248 248 247 247 247 247 247 247 247 248 248 250 251 251
311 307 300 294 292 293 292 289 287 284 280 276 272 270 269 270 270 269 268 265 263 261 259 257 254 251 248 246 244 243 242 240 240 239 239 238 237 237 237 237 237 237 237 237 237 237 236 236 236 237 237 237 237 237 237 238 239 240 242 243 244 245 246 246 247 248 248 248 247 246 245 245 244 244 245 245 245 245 246 246 247 248 249 250 250
309 306 302 299 298 298 295 290 286 284 281 278 273 269 267 266 265 264 264 262 261 259 258 256 255 253 251 249 246 243 242 240 239 238 237 237 236 236 236 236 236 237 237 237 236 237 236 236 236 236 237 237 237 237 238 238 238 239 239 240 240 241 242 243 243 244 245 245 245 245 245 245 244 244 244 244 245 245 246 246 247 248 248 249 249
312 309 305 302 300 297 293 289 287 286 284 280 276 271 268 266 264 263 262 262 261 260 258 256 254 253 252 251 250 248 245 243 242 240 238 237 236 236 236 235 235 236 237 237 236 237 237 238 238 238 238 239 239 239 239 238 238 238 238 238 238 239 239 240 240 241 242 243 244 244 245 246 246 246 246 246 246 246 246 247 247 247 248 248 249
317 313 309 305 301 297 295 293 293 291 288 284 280 276 273 270 268 266 264 263 261 260 259 257 256 254 252 251 250 248 246 245 244 242 240 238 236 235 235 235 235 236 237 237 237 237 238 238 238 239 240 240 241 240 239 238 237 237 237 237 237 237 237 238 239 240 241 242 243 244 244 245 246 246 246 245 245 245 245 246 246 247 247 248 249
322 317 313 309 306 304 301 300 300 297 294 289 285 281 276 272 270 268 266 264 262 259 257 255 254 252 250 249 247 245 244 243 242 242 241 239 238 236 236 235 236 236 237 238 238 238 238 238 238 238 238 239 238 237 236 236 235 236 237 237 237 237 238 238 239 240 241 242 242 243 243 243 243 243 244 244 244 245 245 246 247 248 248 249 250
325 321 317 314 311 309 307 305 303 299 294 290 286 282 278 274 271 269 267 265 263 260 257 254 252 251 250 250 249 248 246 244 243 242 242 241 239 239 239 239 239 239 239 238 238 237 237 237 236 236 236 235 235 235 234 234 234 236 237 237 238 239 240 240 240 241 241 242 242 242 242 242 243 243 243 244 245 246 247 247 248 249 250 251 252
327 323 320 317 314 312 309 307 304 299 295 291 287 284 281 278 274 271 268 266 264 263 260 258 255 254 252 251 251 250 249 247 246 244 243 242 240 239 239 239 240 240 240 240 239 238 238 237 236 236 236 236 236 235 236 235 235 236 237 237 238 240 241 241 241 241 241 241 241 241 241 242 243 244 245 245 246 246 246 247 247 248 249 250 251
328 325 323 321 318 315 312 309 307 304 300 296 291 286 281 277 274 272 270 269 266 263 260 259 258 256 255 253 252 252 251 250 249 247 246 244 243 241 240 240 240 240 240 241 241 241 240 239 238 237 237 238 238 238 238 238 237 238 238 238 237 238 238 238 238 238 238 239 239 240 241 242 243 244 245 245 245 245 245 246 246 247 247 248 248
331 329 327 325 322 318 315 313 311 309 305 301 295 289 284 280 276 274 271 268 264 259 256 255 254 254 254 254 253 252 251 250 249 247 246 246 245 245 244 243 242 242 241 241 241 242 242 241 240 239 238 239 239 239 239 239 240 240 240 239 237 236 236 236 235 235 237 238 238 239 240 241 242 243 244 245 245 245 245 246 246 246 246 247 247
335 333 331 328 325 322 319 318 316 314 310 306 300 296 292 287 282 276 271 268 264 261 258 255 253 252 252 252 252 252 252 251 249 247 245 243 243 243 243 244 244 243 242 241 240 241 241 241 241 241 241 240 240 240 240 240 240 240 240 239 238 236 234 233 233 234 237 238 238 238 239 241 242 243 244 244 245 245 245 245 246 246 247 247 247
339 337 334 331 328 327 326 325 323 319 314 309 304 301 297 292 287 282 280 278 276 273 269 266 263 261 259 257 255 254 254 253 252 249 245 242 239 238 238 239 240 240 240 239 239 239 239 240 241 241 241 241 240 240 239 238 237 238 238 239 239 238 236 234 235 236 238 240 240 240 241 242 243 244 244 245 245 245 245 245 245 246 247 247 248
344 341 338 335 333 332 331 329 326 322 318 314 311 308 304 300 296 293 290 289 286 283 280 277 275 272 268 265 262 259 257 256 254 252 248 243 239 236 234 234 235 235 235 235 235 236 237 238 239 240 240 240 240 240 239 238 237 237 236 237 237 238 238 238 239 240 241 242 243 243 244 245 245 245 245 245 245 245 245 246 246 246 247 247 248
349 346 342 339 338 337 336 333 330 327 325 324 322 319 314 309 305 300 296 293 291 289 286 285 282 278 274 270 267 265 263 261 260 258 255 250 245 240 236 233 232 232 232 231 231 232 233 234 236 237 238 238 239 239 239 238 237 236 236 236 236 238 239 240 241 242 243 244 245 245 245 244 245 245 245 245 245 246 246 246 246 247 247 247 248
353 350 348 346 345 344 343 342 340 338 335 334 332 329 324 317 311 305 300 297 295 293 291 291 289 285 281 277 274 271 268 265 264 262 260 257 251 246 241 236 233 230 229 229 229 229 230 231 231 232 233 233 233 234 234 234 234 234 234 235 235 237 238 239 241 242 243 243 243 243 243 243 244 245 245 245 245 245 245 246 246 246 246 247 247
356 356 355 355 354 353 352 351 349 347 345 343 341 336 331 325 318 312 307 303 298 295 294 295 294 290 285 279 273 268 264 260 258 257 255 254 251 248 244 239 235 232 229 228 227 227 229 230 231 231 231 231 230 230 229 229 229 229 229 230 231 233 234 236 237 239 240 241 241 241 242 243 243 243 244 244 244 244 244 245 245 246 246 247 248
360 1 1 2 3 2 360 357 355 354 353 351 348 343 340 337 331 325 319 310 300 296 293 292 288 284 279 272 267 261 256 252 249 247 245 244 243 243 242 240 237 234 231 228 227 226 227 228 230 231 231 231 231 231 230 229 228 227 227 227 228 230 231 233 235 236 238 238 239 239 240 241 241 242 242 243 243 244 244 245 246 247 248 249 250
4 4 5 7 8 7 5 4 2 1 358 356 354 351 349 345 340 333 324 312 302 297 292 286 280 275 269 264 260 254 247 242 239 237 236 234 233 233 234 233 233 231 229 227 225 224 224 225 225 226 226 226 227 228 228 229 228 227 227 227 228 229 230 231 232 234 235 236 237 238 239 240 241 242 243 244 245 246 246 248 249 250 251 252 253
6 6 8 11 11 10 9 8 6 5 3 1 0 358 356 355 349 341 332 322 318 315 306 294 279 268 260 255 249 243 235 227 223 221 221 222 222 223 223 223 222 222 221 220 219 218 218 218 218 218 218 219 220 221 222 223 224 224 224 225 226 227 229 230 231 233 235 237 238 240 241 243 244 245 246 247 248 248 249 249 250 251 251 251 252
5 7 10 13 13 11 10 8 9 9 9 7 5 5 5 6 3 356 353 351 350 346 334 316 293 272 258 250 242 236 228 221 214 208 205 204 204 207 208 209 209 210 211 213 214 215 216 217 218 218 219 220 222 223 224 225 226 226 226 226 227 229 230 232 234 236 238 239 241 242 243 244 245 245 246 246 247 247 247 247 247 247 247 247 247
5 7 11 14 14 13 11 11 13 15 13 11 11 12 14 17 18 19 18 18 17 16 9 359 341 301 273 255 241 232 223 217 211 204 198 194 191 190 191 192 192 195 198 202 205 208 210 212 215 216 218 220 222 225 227 229 230 231 231 231 231 232 233 234 235 236 237 237 238 239 239 240 241 241 241 242 242 243 243 243 243 243 243 244 244
7 9 12 15 15 14 14 16 19 20 19 19 21 23 26 29 30 30 31 33 35 38 39 41 39 27 299 234 221 212 208 207 206 203 197 192 187 184 183 183 183 184 187 190 193 195 198 201 204 207 209 212 215 218 221 224 226 228 229 230 231 231 232 233 233 234 234 234 234 235 235 236 237 238 239 239 240 241 241 242 242 242 243 244 244
10 10 12 15 16 17 17 19 22 23 24 25 28 31 34 37 38 39 42 46 51 56 60 63 68 78 97 120 141 155 167 178 187 193 194 190 187 183 181 181 181 181 183 185 186 187 189 192 195 198 201 204 206 209 212 216 218 221 223 225 227 228 230 231 231 232 233 234 234 235 236 236 237 238 238 239 240 241 241 242 243 244 245 245 247
12 11 11 14 17 18 19 20 22 24 26 27 29 33 37 41 46 49 50 54 63 73 80 86 91 98 108 117 122 126 131 136 141 149 157 164 168 170 171 172 172 173 175 178 181 182 184 185 188 191 194 197 201 204 207 210 212 215 217 219 222 224 226 227 229 230 231 232 233 234 235 236 237 238 239 240 241 243 244 245 247 248 249 250 252
13 11 10 13 16 18 18 18 19 22 24 26 28 32 36 41 46 49 51 54 61 71 83 93 102 111 118 122 123 125 129 131 132 134 137 139 143 145 148 151 153 154 156 160 163 167 170 173 176 179 183 186 191 195 198 201 204 207 210 213 216 218 221 223 225 227 229 230 232 234 235 237 239 241 243 245 246 248 250 252 253 255 256 257 258
14 11 9 11 16 17 17 17 17 19 22 24 27 31 35 40 45 48 49 52 54 59 68 78 87 98 109 117 119 121 125 129 132 135 137 138 141 143 143 145 147 148 151 153 155 158 162 164 167 171 174 178 183 187 191 195 199 202 207 211 214 219 222 226 229 232 235 237 239 242 244 246 248 250 252 254 255 257 258 259 261 261 262 262 263
14 11 8 10 15 18 17 16 17 19 21 23 25 29 34 39 44 46 48 51 53 55 61 67 74 79 88 95 99 102 106 112 119 126 130 133 137 140 140 142 144 146 150 154 156 159 162 165 168 172 176 180 186 191 197 202 207 212 218 223 228 232 236 240 243 245 247 250 252 253 255 257 258 259 260 261 262 262 263 263 264 264 265 266 268
14 10 7 8 14 19 19 17 18 20 22 24 26 30 35 40 44 45 47 50 51 51 54 60 66 72 78 82 84 87 90 94 98 106 112 116 118 120 121 126 129 135 143 151 158 163 168 171 175 179 184 192 201 210 217 223 227 232 237 241 244 247 249 251 253 255 256 257 258 259 261 262 262 263 264 265 265 266 267 269 270 272 273 274 275
13 10 7 7 11 18 20 20 20 22 24 25 28 33 39 44 46 47 48 50 50 50 49 51 55 61 67 72 75 78 80 82 87 91 95 100 103 106 109 114 117 125 135 149 161 172 181 187 195 202 208 216 225 231 236 241 244 247 249 252 254 255 257 258 260 261 262 263 265 266 267 268 269 270 271 273 274 275 277 278 279 279 279 279 279
12 10 7 7 11 16 20 22 23 25 26 26 29 35 41 46 47 48 49 51 51 48 46 45 47 52 55 59 62 64 65 66 69 72 77 81 86 92 97 102 108 114 128 145 164 185 198 210 220 228 232 237 242 246 248 251 255 257 260 262 264 266 268 269 270 272 273 274 275 276 277 277 278 279 279 280 281 281 282 281 281 280 279 277 276
11 9 7 8 11 16 19 21 23 25 26 28 30 35 39 42 44 45 47 49 50 48 45 41 41 44 46 47 48 49 49 49 49 49 49 50 51 53 54 53 55 51 37 13 334 295 282 276 272 272 271 270 271 273 275 278 281 283 284 285 285 284 285 284 284 284 283 283 283 283 283 283 283 283 283 283 282 281 280 279 277 276 275 275 274
8 7 6 8 10 14 18 20 22 22 24 27 31 34 37 37 36 36 39 42 45 44 41 36 34 35 37 39 38 37 36 35 34 32 30 27 24 22 18 14 11 6 359 352 345 337 331 326 322 318 314 311 309 307 305 303 301 299 297 294 292 290 289 288 287 287 287 286 285 285 284 284 283 282 281 280 279 278 277 276 276 276 276 276 276
6 6 6 6 8 12 16 20 21 21 22 26 30 32 31 29 27 27 30 33 35 36 34 30 27 27 28 30 30 28 27 26 23 21 20 17 13 11 7 4 360 356 352 348 344 340 336 332 327 323 319 315 311 307 304 300 298 295 293 292 290 290 289 288 288 287 286 285 285 284 283 282 281 280 280 279 279 279 280 280 280 281 281 281 282
4 4 5 5 6 9 13 17 20 20 20 23 26 27 26 24 22 22 23 26 27 28 27 24 21 21 22 22 23 22 20 18 17 14 12 10 7 4 1 357 353 349 344 340 336 331 326 321 316 312 308 306 304 301 299 298 296 295 294 293 291 291 289 288 287 286 286 285 284 284 283 283 283 284 284 285 285 286 286 286 286 286 285 285 285
3 3 3 3 3 4 7 11 15 17 17 16 17 18 19 19 17 16 18 20 21 21 20 18 16 16 17 17 17 17 15 14 13 11 9 8 6 2 359 355 351 347 342 338 333 329 325 322 319 316 315 312 309 307 304 301 299 297 296 294 293 292 291 290 289 289 288 288 288 288 289 289 290 290 290 291 290 290 290 289 289 288 288 288 287
2 1 1 360 359 359 0 2 5 9 11 10 9 10 12 13 12 11 11 14 16 17 16 13 12 12 12 12 12 11 11 10 10 9 8 8 7 5 3 0 357 353 350 345 341 336 333 329 325 321 317 313 309 307 304 302 300 299 298 297 297 296 295 295 295 294 294 294 295 295 295 295 295 295 294 293 293 292 291 290 290 289 288 288 288
1 1 359 357 355 354 355 356 358 1 3 2 0 1 4 6 5 4 4 6 9 12 12 10 9 10 10 10 9 9 8 8 8 7 7 7 7 7 6 5 2 0 356 352 346 340 333 327 322 318 314 312 310 308 307 306 305 304 303 302 302 301 301 300 300 300 299 299 299 298 297 297 296 295 295 294 293 292 291 290 290 289 289 288 288
Height
9958 9955 9953 9952 9951 9951 9950 9950 9950 9950 9950 9950 9950 9951 9953 9953 9953 9954 9955 9957 9959 9960 9962 9964 9967 9969 9972 9974 9977 9981 9985 9990 9995 10000 10005 10010 10014 10017 10022 10027 10032 10038 10043 10048 10052 10057 10062 10069 10075 10083 10089 10095 10103 10109 10115 10120 10125 10129 10135 10141 10150 10158 10162 10165 10172 10181 10189 10195 10199 10200 10200 10201 10203 10209 10220 10230 10237 10241 10244 10245 10248 10251 10254 10258 10262
9950 9948 9946 9945 9943 9942 9942 9941 9941 9941 9942 9942 9942 9942 9943 9944 9943 9944 9945 9947 9949 9950 9952 9955 9958 9960 9962 9964 9967 9971 9974 9978 9983 9988 9992 9996 9999 10003 10007 10013 10019 10024 10029 10034 10039 10042 10047 10053 10059 10066 10072 10078 10086 10093 10099 10105 10110 10115 10120 10125 10133 10140 10145 10148 10155 10164 10173 10180 10184 10186 10187 10187 10190 10196 10203 10212 10220 10224 10227 10231 10233 10236 10240 10244 10248
9942 9940 9939 9938 9936 9935 9934 9933 9933 9932 9933 9933 9933 9933 9934 9935 9935 9935 9936 9938 9940 9941 9943 9945 9948 9950 9952 9955 9957 9961 9964 9967 9971 9976 9980 9983 9986 9990 9994 10000 10006 10011 10015 10021 10025 10029 10033 10039 10045 10051 10056 10062 10070 10078 10085 10091 10096 10101 10107 10111 10117 10123 10128 10132 10138 10147 10157 10164 10168 10172 10173 10175 10180 10185 10189 10196 10201 10207 10213 10217 10218 10222 10225 10229 10232
9935 9933 9931 9930 9929 9928 9927 9926 9925 9924 9924 9925 9925 9926 9926 9927 9927 9928 9928 9929 9931 9932 9933 9935 9938 9940 9942 9945 9948 9951 9954 9957 9960 9964 9968 9971 9974 9978 9982 9987 9993 9998 10002 10007 10011 10015 10021 10027 10032 10035 10039 10048 10057 10064 10070 10076 10081 10087 10093 10097 10102 10108 10112 10116 10121 10130 10140 10148 10153 10157 10160 10163 10169 10173 10177 10181 10186 10191 10197 10200 10203 10207 10211 10214 10216
9928 9926 9924 9923 9922 9921 9920 9919 9918 9918 9917 9917 9918 9919 9919 9919 9920 9921 9921 9921 9921 9923 9925 9927 9929 9931 9933 9935 9938 9940 9944 9947 9950 9954 9957 9961 9964 9968 9972 9976 9981 9985 9989 9993 9997 10003 10009 10015 10019 10021 10026 10035 10045 10051 10055 10061 10066 10072 10078 10084 10090 10094 10097 10101 10105 10113 10123 10132 10138 10143 10146 10150 10157 10161 10164 10167 10171 10175 10180 10184 10188 10191 10195 10198 10200
9920 9918 9917 9915 9914 9913 9913 9911 9911 9911 9910 9910 9910 9911 9912 9912 9913 9914 9914 9914 9914 9915 9917 9919 9921 9923 9925 9927 9929 9931 9934 9937 9940 9943 9947 9951 9954 9957 9961 9965 9969 9973 9977 9981 9986 9991 9997 10003 10007 10010 10016 10025 10032 10037 10041 10047 10052 10058 10065 10071 10076 10080 10082 10086 10091 10098 10107 10115 10122 10128 10133 10138 10143 10147 10150 10152 10155 10158 10163 10167 10172 10177 10181 10184 10185
9912 9911 9909 9907 9906 9905 9905 9905 9904 9904 9903 9903 9903 9904 9905 9905 9906 9906 9906 9907 9907 9908 9909 9910 9912 9914 9917 9919 9920 9922 9925 9928 9930 9933 9937 9940 9944 9947 9951 9955 9959 9963 9967 9971 9976 9982 9987 9992 9996 10001 10008 10014 10020 10024 10028 10034 10040 10046 10052 10057 10061 10065 10068 10073 10077 10083 10091 10099 10106 10113 10120 10124 10129 10133 10136 10138 10141 10145 10150 10154 10159 10163 10166 10167 10167
9904 9903 9902 9901 9899 9898 9898 9898 9898 9897 9896 9896 9896 9896 9897 9898 9899 9899 9899 9899 9900 9901 9901 9903 9904 9905 9907 9909 9911 9914 9916 9918 9921 9924 9927 9931 9934 9938 9941 9945 9949 9954 9958 9962 9967 9972 9977 9981 9986 9992 9997 10002 10006 10010 10016 10021 10027 10033 10038 10043 10046 10051 10055 10060 10064 10069 10077 10084 10092 10099 10105 10110 10115 10121 10124 10127 10131 10136 10138 10138 10140 10142 10144 10147 10150
9897 9896 9896 9895 9894 9893 9892 9892 9892 9891 9890 9889 9889 9889 9889 9891 9892 9892 9892 9892 9893 9894 9895 9895 9895 9896 9898 9901 9903 9906 9908 9910 9913 9915 9919 9922 9925 9928 9932 9936 9939 9943 9947 9952 9956 9961 9966 9971 9975 9980 9985 9989 9993 9997 10002 10008 10014 10020 10025 10029 10032 10037 10042 10046 10050 10055 10063 10071 10079 10085 10091 10096 10102 10107 10112 10117 10121 10122 10120 10118 10119 10122 10125 10130 10137
9893 9891 9890 9890 9889 9887 9886 9886 9886 9885 9884 9883 9882 9882 9882 9883 9884 9885 9885 9886 9886 9887 9887 9887 9888 9889 9891 9893 9895 9898 9901 9903 9905 9908 9911 9914 9917 9920 9924 9927 9930 9933 9937 9942 9946 9951 9955 9959 9964 9968 9972 9976 9980 9984 9988 9994 10000 10006 10010 10014 10018 10023 10029 10033 10037 10041 10047 10055 10064 10071 10077 10082 10087 10092 10098 10103 10104 10104 10105 10105 10105 10106 10109 10115 10123
9890 9888 9885 9885 9884 9882 9881 9880 9880 9879 9878 9877 9876 9875 9875 9876 9876 9877 9878 9879 9879 9880 9880 9881 9882 9883 9884 9886 9888 9890 9893 9895 9898 9900 9903 9906 9909 9912 9915 9918 9921 9924 9928 9932 9936 9940 9944 9948 9952 9956 9960 9965 9969 9972 9976 9981 9988 9993 9997 10000 10005 10010 10015 10020 10024 10029 10033 10041 10050 10057 10064 10071 10075 10077 10082 10087 10089 10092 10093 10092 10091 10093 10096 10101 10108
9886 9884 9882 9880 9879 9877 9876 9874 9874 9873 9872 9871 9870 9869 9869 9868 9869 9869 9870 9872 9873 9874 9874 9875 9876 9877 9878 9879 9880 9882 9885 9888 9890 9892 9895 9899 9901 9904 9907 9909 9913 9916 9919 9923 9926 9930 9933 9937 9941 9945 9950 9954 9958 9962 9966 9970 9976 9981 9985 9989 9993 9999 10004 10009 10014 10018 10022 10028 10036 10044 10053 10059 10062 10064 10069 10073 10075 10077 10078 10077 10079 10081 10083 10087 10092
9881 9878 9877 9875 9873 9872 9870 9869 9868 9868 9867 9866 9865 9864 9863 9862 9862 9862 9863 9865 9866 9867 9868 9870 9871 9872 9873 9873 9874 9876 9878 9881 9883 9885 9889 9892 9895 9897 9899 9902 9905 9907 9910 9913 9915 9919 9923 9927 9931 9935 9939 9943 9948 9953 9957 9961 9965 9970 9974 9979 9983 9989 9994 9999 10003 10007 10011 10016 10023 10032 10041 10045 10047 10052 10056 10057 10058 10060 10063 10065 10067 10068 10068 10073 10077
9876 9873 9871 9870 9867 9866 9865 9864 9863 9863 9862 9862 9861 9859 9858 9857 9857 9857 9858 9858 9859 9861 9862 9864 9865 9867 9867 9868 9869 9870 9873 9875 9877 9879 9882 9884 9887 9890 9891 9893 9896 9898 9900 9903 9906 9910 9913 9917 9920 9924 9928 9934 9939 9944 9947 9951 9955 9959 9964 9969 9974 9979 9983 9987 9992 9995 9999 10004 10011 10019 10026 10028 10031 10037 10039 10040 10043 10047 10049 10051 10052 10051 10053 10058 10063
9870 9868 9866 9864 9862 9861 9860 9859 9859 9858 9858 9857 9856 9855 9854 9853 9853 9853 9853 9853 9853 9854 9856 9857 9859 9860 9861 9862 9863 9865 9868 9869 9870 9872 9874 9876 9879 9882 9883 9885 9888 9890 9892 9894 9898 9902 9905 9908 9911 9915 9919 9923 9928 9932 9936 9940 9944 9949 9955 9960 9964 9968 9971 9976 9980 9982 9986 9992 9999 10005 10009 10011 10016 10022 10024 10026 10030 10032 10034 10035 10036 10038 10041 10047 10052
9865 9863 9861 9859 9857 9856 9856 9855 9854 9853 9852 9852 9851 9850 9850 9849 9849 9849 9848 9848 9849 9849 9850 9851 9852 9853 9854 9855 9857 9859 9861 9863 9863 9865 9867 9870 9872 9874 9875 9877 9879 9881 9882 9885 9888 9892 9896 9899 9903 9905 9909 9913 9916 9920 9925 9930 9936 9942 9947 9950 9953 9957 9961 9964 9967 9968 9973 9979 9985 9989 9992 9996 10003 10008 10010 10013 10016 10019 10020 10021 10023 10027 10031 10036 10040
9860 9857 9855 9854 9853 9852 9851 9850 9849 9848 9847 9847 9846 9846 9845 9845 9845 9844 9844 9844 9844 9844 9845 9846 9846 9847 9848 9849 9851 9853 9855 9856 9857 9859 9861 9863 9865 9867 9868 9870 9871 9872 9873 9876 9880 9883 9886 9890 9893 9896 9900 9903 9906 9912 9918 9924 9930 9934 9937 9939 9942 9946 9950 9952 9954 9957 9961 9966 9971 9974 9978 9982 9988 9994 9997 10001 10004 10006 10007 10009 10012 10017 10020 10022 10025
9855 9853 9851 9850 9848 9847 9846 9845 9845 9844 9843 9843 9842 9841 9841 9840 9840 9840 9840 9840 9840 9840 9841 9841 9842 9842 9843 9844 9845 9847 9849 9850 9851 9853 9855 9857 9859 9860 9861 9863 9863 9864 9865 9868 9872 9876 9879 9883 9886 9890 9893 9896 9901 9908 9914 9918 9922 9924 9925 9928 9932 9936 9939 9940 9942 9947 9951 9956 9961 9964 9967 9971 9976 9981 9985 9989 9992 9993 9994 9996 10000 10003 10005 10007 10010
9851 9849 9847 9846 9844 9843 9842 9841 9841 9840 9839 9839 9838 9837 9837 9837 9836 9836 9836 9836 9836 9836 9837 9837 9837 9838 9838 9839 9840 9841 9843 9844 9845 9846 9848 9851 9852 9853 9854 9856 9856 9857 9859 9863 9867 9871 9874 9878 9881 9884 9887 9891 9897 9902 9905 9909 9912 9912 9913 9918 9922 9925 9927 9929 9934 9939 9943 9947 9951 9954 9958 9962 9966 9970 9973 9976 9978 9979 9981 9983 9986 9988 9991 9994 9997
9847 9845 9844 9842 9841 9840 9839 9838 9837 9836 9836 9835 9834 9834 9834 9833 9833 9832 9832 9832 9832 9832 9832 9832 9832 9832 9833 9834 9835 9836 9837 9838 9839 9840 9842 9844 9846 9847 9848 9849 9850 9852 9855 9859 9862 9866 9869 9872 9875 9878 9881 9885 9889 9892 9894 9898 9900 9901 9903 9908 9912 9914 9917 9923 9928 9932 9935 9939 9943 9946 9950 9954 9956 9958 9961 9963 9965 9968 9971 9974 9976 9979 9981 9983 9986
9844 9842 9841 9839 9838 9837 9836 9835 9834 9833 9832 9831 9831 9830 9830 9830 9830 9829 9829 9828 9828 9828 9828 9827 9827 9828 9828 9829 9830 9831 9833 9834 9835 9837 9838 9840 9842 9842 9843 9844 9846 9848 9850 9853 9856 9858 9861 9864 9867 9870 9873 9876 9878 9881 9884 9888 9891 9893 9896 9901 9904 9906 9912 9918 9922 9925 9929 9933 9935 9937 9940 9943 9944 9947 9950 9952 9956 9961 9964 9967 9969 9971 9973 9975 9978
9841 9840 9838 9836 9835 9833 9832 9832 9831 9830 9829 9828 9828 9828 9827 9826 9826 9825 9825 9825 9824 9824 9824 9823 9824 9824 9825 9826 9826 9827 9828 9830 9831 9833 9834 9836 9837 9838 9839 9840 9841 9843 9845 9847 9849 9851 9854 9858 9861 9863 9866 9868 9871 9874 9878 9881 9885 9887 9890 9895 9899 9902 9906 9911 9915 9919 9922 9923 9923 9927 9930 9932 9934 9938 9941 9944 9949 9953 9955 9957 9960 9962 9964 9966 9968
9839 9837 9835 9834 9832 9831 9829 9828 9827 9827 9826 9826 9825 9825 9824 9823 9822 9822 9822 9822 9821 9821 9821 9820 9820 9820 9821 9822 9822 9823 9824 9825 9827 9828 9829 9830 9832 9833 9835 9836 9837 9839 9841 9843 9844 9846 9849 9852 9855 9858 9860 9862 9865 9869 9872 9875 9879 9881 9885 9890 9894 9897 9901 9905 9909 9911 9911 9912 9914 9918 9921 9923 9925 9929 9932 9936 9941 9943 9945 9948 9950 9952 9953 9955 9957
9837 9835 9833 9832 9830 9829 9827 9826 9825 9824 9823 9823 9822 9821 9821 9820 9820 9819 9819 9818 9818 9818 9818 9817 9817 9817 9818 9818 9819 9820 9820 9821 9823 9824 9825 9826 9827 9828 9830 9831 9833 9835 9837 9839 9840 9842 9844 9847 9849 9852 9854 9857 9860 9863 9866 9869 9873 9875 9879 9883 9887 9890 9894 9897 9899 9900 9901 9903 9907 9910 9912 9914 9917 9921 9924 9928 9932 9934 9936 9938 9939 9941 9943 9944 9946
9836 9834 9832 9830 9828 9827 9825 9824 9823 9821 9820 9819 9819 9818 9818 9817 9817 9816 9816 9815 9815 9815 9814 9814 9815 9815 9815 9816 9816 9816 9817 9818 9819 9820 9821 9822 9823 9824 9826 9827 9828 9830 9832 9834 9836 9837 9839 9842 9844 9846 9849 9851 9855 9858 9861 9864 9867 9870 9873 9876 9879 9882 9885 9888 9889 9891 9893 9896 9899 9902 9904 9907 9910 9914 9917 9921 9923 9925 9927 9928 9930 9932 9934 9935 9937
9835 9833 9830 9828 9826 9825 9823 9822 9821 9819 9818 9817 9817 9816 9815 9815 9814 9813 9812 9812 9812 9811 9811 9811 9811 9812 9812 9812 9813 9813 9813 9814 9815 9816 9817 9818 9819 9820 9822 9823 9824 9826 9827 9829 9831 9833 9835 9837 9839 9841 9844 9846 9849 9852 9855 9858 9861 9864 9867 9869 9872 9874 9877 9880 9882 9884 9886 9889 9892 9895 9898 9900 9904 9907 9910 9912 9914 9915 9917 9920 9922 9924 9925 9927 9928
9834 9832 9829 9827 9825 9824 9822 9821 9819 9818 9817 9816 9815 9814 9813 9812 9812 9811 9810 9809 9809 9809 9808 9808 9809 9809 9809 9809 9809 9810 9810 9810 9811 9812 9813 9814 9816 9817 9818 9819 9820 9822 9823 9825 9827 9828 9830 9832 9835 9837 9839 9842 9844 9847 9850 9853 9856 9859 9861 9863 9865 9868 9871 9874 9876 9879 9881 9884 9886 9889 9892 9895 9897 9899 9901 9903 9905 9907 9909 9911 9913 9915 9917 9919 9920
9834 9831 9829 9827 9825 9823 9821 9820 9818 9817 9816 9815 9813 9812 9811 9810 9810 9809 9808 9808 9807 9806 9806 9806 9806 9806 9806 9806 9806 9806 9807 9807 9808 9808 9809 9810 9812 9813 9814 9815 9817 9818 9819 9821 9823 9824 9826 9828 9830 9833 9835 9838 9840 9843 9845 9848 9850 9852 9855 9857 9859 9862 9865 9867 9870 9873 9876 9878 9881 9883 9886 9887 9889 9891 9893 9895 9897 9899 9901 9903 9905 9907 9909 9911 9912
9833 9831 9829 9826 9824 9823 9821 9819 9818 9816 9815 9814 9812 9811 9810 9809 9808 9807 9807 9806 9805 9805 9805 9805 9804 9804 9804 9804 9804 9804 9804 9805 9805 9805 9806 9807 9808 9809 9810 9812 9813 9815 9816 9818 9819 9820 9822 9824 9826 9828 9830 9833 9835 9837 9840 9842 9844 9846 9849 9852 9854 9857 9860 9862 9865 9868 9870 9873 9875 9876 9878 9880 9882 9884 9886 9888 9890 9891 9893 9895 9897 9899 9901 9902 9903
9833 9831 9828 9826 9824 9822 9821 9819 9818 9816 9815 9813 9812 9811 9810 9808 9807 9807 9806 9805 9805 9804 9804 9804 9803 9803 9803 9803 9803 9803 9803 9803 9803 9804 9804 9805 9805 9806 9807 9808 9810 9811 9813 9815 9816 9817 9819 9821 9822 9824 9826 9829 9830 9832 9834 9836 9838 9841 9844 9847 9850 9852 9855 9857 9860 9862 9864 9866 9868 9870 9872 9874 9876 9877 9879 9881 9882 9884 9886 9888 9890 9891 9893 9894 9895
9833 9830 9828 9826 9824 9822 9821 9819 9817 9816 9814 9813 9812 9810 9809 9808 9807 9807 9806 9805 9805 9804 9804 9803 9803 9802 9802 9802 9801 9801 9802 9802 9802 9802 9803 9803 9803 9804 9805 9806 9807 9809 9811 9812 9814 9815 9817 9819 9821 9823 9825 9827 9828 9830 9831 9833 9835 9837 9840 9842 9845 9847 9850 9852 9855 9857 9859 9861 9862 9864 9866 9868 9869 9871 9873 9874 9876 9878 9879 9881 9883 9885 9886 9888 9890
9833 9830 9828 9826 9824 9822 9821 9819 9817 9816 9814 9813 9812 9811 9810 9809 9808 9807 9806 9806 9805 9804 9804 9803 9803 9802 9801 9801 9801 9801 9801 9801 9801 9801 9801 9802 9802 9802 9803 9804 9806 9807 9808 9810 9812 9813 9815 9817 9819 9821 9823 9824 9826 9827 9828 9830 9832 9834 9836 9838 9841 9843 9845 9847 9849 9851 9853 9855 9857 9859 9860 9862 9864 9865 9867 9869 9870 9872 9874 9876 9878 9879 9881 9883 9884
9833 9831 9829 9826 9824 9823 9821 9819 9818 9816 9815 9813 9812 9811 9810 9809 9808 9807 9807 9806 9805 9804 9803 9803 9802 9801 9801 9800 9800 9800 9800 9800 9800 9800 9800 9800 9801 9801 9802 9803 9804 9805 9806 9808 9809 9811 9812 9813 9815 9817 9819 9820 9821 9823 9824 9826 9828 9830 9832 9835 9837 9839 9841 9842 9844 9847 9849 9850 9852 9854 9856 9857 9859 9860 9862 9864 9865 9867 9869 9871 9872 9874 9875 9877 9878
9834 9832 9830 9828 9826 9823 9822 9820 9818 9817 9815 9814 9813 9812 9811 9810 9809 9808 9807 9806 9805 9804 9803 9803 9802 9801 9801 9800 9800 9800 9800 9799 9799 9799 9799 9800 9800 9800 9801 9802 9803 9804 9805 9806 9807 9808 9810 9811 9813 9814 9816 9817 9818 9820 9821 9823 9825 9827 9829 9831 9833 9835 9837 9839 9841 9843 9845 9847 9848 9850 9851 9853 9854 9855 9857 9858 9860 9861 9863 9864 9866 9867 9868 9869 9870
9835 9833 9831 9829 9827 9825 9823 9821 9819 9818 9816 9815 9814 9812 9811 9810 9809 9808 9807 9805 9805 9804 9803 9803 9802 9802 9801 9801 9801 9800 9800 9800 9799 9799 9799 9799 9799 9800 9800 9801 9802 9803 9804 9805 9806 9807 9808 9810 9812 9813 9815 9816 9817 9819 9820 9822 9823 9824 9826 9828 9830 9832 9834 9835 9837 9839 9840 9842 9843 9845 9846 9848 9849 9850 9851 9853 9854 9855 9857 9858 9859 9860 9861 9862 9862
9836 9834 9831 9830 9828 9826 9824 9822 9820 9819 9817 9816 9814 9813 9812 9811 9809 9808 9807 9806 9805 9805 9804 9803 9803 9802 9802 9802 9802 9801 9801 9801 9800 9800 9800 9799 9799 9800 9800 9800 9801 9802 9803 9804 9805 9806 9807 9809 9810 9811 9813 9814 9816 9817 9818 9820 9821 9822 9823 9825 9827 9828 9830 9831 9833 9834 9836 9837 9839 9840 9841 9843 9844 9845 9846 9847 9848 9850 9851 9851 9852 9853 9854 9855 9856
9837 9835 9833 9831 9829 9827 9825 9823 9821 9820 9818 9817 9815 9814 9813 9812 9810 9809 9808 9807 9806 9806 9805 9804 9804 9803 9803 9802 9802 9802 9802 9802 9802 9801 9801 9801 9800 9800 9800 9801 9801 9802 9803 9803 9804 9805 9806 9808 9809 9810 9812 9813 9814 9816 9817 9818 9819 9820 9822 9823 9824 9825 9827 9828 9829 9831 9832 9833 9835 9836 9837 9838 9839 9840 9841 9842 9843 9844 9844 9845 9846 9847 9848 9849 9850
9839 9837 9835 9833 9831 9829 9826 9825 9823 9821 9819 9818 9817 9816 9815 9813 9812 9811 9810 9809 9808 9807 9806 9805 9805 9804 9804 9803 9803 9803 9803 9803 9803 9803 9803 9803 9802 9802 9802 9802 9803 9803 9804 9804 9805 9806 9807 9808 9809 9810 9811 9812 9813 9815 9816 9817 9818 9819 9820 9822 9823 9824 9825 9826 9827 9828 9829 9830 9831 9832 9833 9834 9835 9835 9836 9837 9838 9839 9840 9840 9841 9842 9843 9843 9844
9841 9839 9837 9834 9832 9830 9828 9826 9824 9823 9821 9820 9819 9817 9816 9815 9814 9813 9812 9811 9810 9809 9808 9807 9806 9805 9805 9804 9803 9803 9803 9803 9803 9803 9803 9803 9803 9803 9803 9803 9804 9804 9804 9805 9806 9806 9807 9808 9809 9810 9811 9812 9813 9814 9815 9816 9817 9818 9819 9820 9821 9822 9823 9824 9825 9826 9826 9827 9828 9829 9830 9830 9831 9832 9833 9833 9834 9834 9835 9835 9836 9836 9836 9836 9836
9842 9840 9838 9836 9834 9831 9829 9828 9826 9824 9823 9821 9820 9819 9817 9816 9816 9815 9813 9813 9812 9811 9810 9809 9808 9807 9806 9806 9805 9805 9804 9804 9804 9803 9803 9803 9803 9803 9803 9804 9804 9804 9804 9805 9805 9806 9807 9807 9808 9809 9810 9810 9811 9812 9813 9814 9815 9816 9817 9818 9819 9820 9821 9822 9822 9823 9824 9825 9825 9826 9826 9827 9827 9828 9828 9828 9828 9829 9829 9829 9829 9829 9829 9828 9828
9844 9842 9840 9838 9835 9833 9831 9830 9828 9826 9824 9823 9821 9820 9819 9818 9817 9816 9815 9814 9813 9813 9812 9811 9810 9809 9808 9808 9807 9806 9806 9806 9805 9805 9805 9804 9804 9804 9804 9804 9805 9805 9805 9806 9806 9806 9807 9808 9808 9809 9809 9810 9811 9812 9813 9813 9814 9815 9816 9817 9817 9818 9819 9819 9820 9820 9821 9821 9822 9822 9822 9822 9823 9823 9823 9823 9823 9823 9823 9823 9822 9822 9822 9821 9820
9846 9844 9842 9840 9837 9835 9833 9832 9830 9828 9826 9825 9823 9822 9821 9819 9818 9817 9817 9816 9815 9814 9814 9813 9812 9811 9810 9809 9809 9808 9808 9807 9807 9806 9806 9806 9805 9805 9805 9805 9805 9806 9806 9806 9807 9807 9807 9808 9808 9808 9809 9809 9810 9811 9811 9812 9813 9813 9814 9814 9815 9815 9816 9816 9817 9817 9817 9818 9818 9818 9818 9818 9818 9818 9818 9817 9817 9817 9816 9816 9815 9815 9814 9813 9813
9848 9846 9844 9842 9840 9837 9835 9834 9832 9830 9829 9827 9825 9824 9823 9821 9820 9819 9818 9817 9817 9816 9815 9814 9813 9812 9811 9811 9810 9810 9809 9809 9808 9807 9807 9807 9806 9806 9806 9806 9806 9806 9806 9806 9807 9807 9807 9807 9807 9807 9808 9808 9809 9809 9810 9810 9811 9811 9812 9812 9813 9813 9813 9813 9813 9814 9814 9814 9813 9814 9813 9813 9813 9812 9812 9811 9811 9810 9810 9809 9809 9808 9807 9807 9806
9850 9848 9846 9844 9842 9839 9837 9836 9834 9832 9831 9829 9828 9826 9825 9823 9822 9821 9820 9819 9818 9817 9817 9816 9815 9814 9813 9812 9812 9811 9810 9810 9809 9809 9808 9808 9807 9807 9807 9807 9807 9807 9807 9806 9807 9806 9807 9807 9807 9807 9807 9807 9808 9808 9808 9809 9809 9809 9810 9810 9810 9810 9810 9810 9810 9810 9810 9809 9809 9809 9808 9808 9807 9807 9806 9806 9805 9805 9804 9804 9803 9802 9802 9801 9800
9851 9849 9848 9846 9843 9841 9839 9838 9836 9834 9833 9831 9830 9828 9827 9825 9824 9823 9822 9821 9820 9819 9818 9818 9817 9816 9815 9814 9813 9813 9812 9811 9811 9810 9809 9809 9808 9808 9808 9807 9807 9807 9807 9806 9806 9806 9806 9806 9806 9806 9806 9806 9806 9807 9807 9807 9807 9807 9807 9807 9807 9807 9807 9806 9806 9806 9806 9805 9805 9804 9804 9803 9803 9803 9802 9802 9801 9800 9800 9799 9798 9797 9796 9795 9793
9853 9851 9849 9847 9845 9843 9841 9840 9838 9836 9835 9833 9831 9830 9829 9827 9826 9825 9824 9823 9822 9821 9820 9819 9819 9818 9817 9816 9815 9814 9814 9813 9812 9811 9810 9810 9809 9808 9808 9807 9807 9807 9806 9806 9805 9805 9805 9805 9805 9804 9804 9804 9804 9804 9804 9804 9804 9804 9804 9804 9804 9804 9804 9803 9803 9803 9802 9802 9801 9801 9800 9800 9799 9799 9798 9797 9797 9796 9795 9794 9792 9791 9789 9788 9786
9855 9853 9851 9849 9847 9845 9843 9841 9839 9838 9836 9835 9833 9832 9830 9829 9828 9827 9825 9824 9823 9822 9822 9821 9820 9819 9818 9817 9816 9815 9815 9814 9813 9812 9811 9810 9810 9809 9808 9808 9807 9806 9806 9805 9805 9804 9804 9804 9804 9803 9803 9803 9803 9803 9803 9803 9803 9802 9802 9802 9802 9801 9801 9801 9800 9800 9799 9798 9798 9797 9797 9796 9795 9794 9793 9792 9791 9790 9789 9787 9786 9784 9782 9781 9779
9857 9855 9853 9851 9849 9847 9845 9843 9841 9839 9838 9836 9835 9833 9832 9831 9829 9828 9827 9826 9825 9824 9823 9822 9821 9820 9819 9818 9817 9816 9815 9814 9813 9812 9812 9811 9810 9809 9809 9808 9807 9807 9806 9805 9805 9805 9804 9804 9804 9803 9803 9803 9802 9802 9802 9801 9801 9801 9800 9800 9800 9799 9799 9798 9797 9797 9796 9795 9794 9794 9793 9792 9791 9789 9788 9787 9785 9784 9782 9781 9779 9777 9775 9773 9771
9859 9857 9855 9852 9850 9848 9846 9844 9842 9841 9839 9838 9836 9835 9833 9832 9831 9830 9828 9827 9826 9825 9824 9823 9822 9821 9820 9819 9818 9817 9816 9815 9814 9813 9812 9811 9810 9810 9809 9808 9807 9807 9806 9805 9805 9804 9804 9803 9803 9802 9802 9801 9801 9801 9800 9800 9800 9799 9799 9798 9798 9797 9796 9795 9795 9794 9793 9792 9791 9790 9788 9787 9786 9784 9783 9782 9780 9778 9777 9775 9773 9771 9769 9767 9765
9860 9858 9856 9854 9852 9850 9848 9846 9844 9842 9840 9839 9837 9836 9835 9833 9832 9831 9830 9828 9827 9826 9825 9824 9823 9822 9821 9819 9818 9817 9816 9815 9814 9813 9812 9811 9810 9809 9809 9808 9807 9806 9806 9805 9804 9804 9803 9803 9802 9801 9801 9801 9800 9799 9799 9798 9798 9797 9796 9796 9795 9794 9793 9792 9791 9790 9789 9788 9787 9785 9784 9782 9781 9779 9778 9776 9775 9773 9771 9769 9767 9765 9763 9761 9759
9861 9859 9857 9855 9853 9851 9849 9847 9845 9843 9842 9840 9839 9837 9836 9835 9833 9832 9831 9830 9828 9827 9826 9825 9824 9822 9821 9820 9819 9818 9816 9815 9814 9813 9812 9811 9810 9809 9808 9808 9807 9806 9805 9805 9804 9803 9803 9802 9801 9801 9800 9799 9799 9798 9797 9796 9795 9794 9794 9793 9792 9791 9790 9788 9787 9786 9785 9783 9782 9781 9779 9778 9776 9774 9773 9771 9769 9767 9766 9764 9762 9760 9758 9755 9753